15 daagse weersverwachting Genoa (IT)

  • Overzicht
  • Per uur
  • 15 dagen
  • Extra
  • Vergelijk
  • Kaarten
  • Dagkaart
  • Meer »
  • Info
  • Statistieken
  • Directe link
    Temp 6h Neerslag Wind  
 07:27     16:53    Daglengte: 9:26 Vandaag
13:00
10°
46.0 mm
9
19:00
11°
42.7 mm
6
 07:28     16:52    Daglengte: 9:24 Morgen
01:00
11°
38.5 mm
6
07:00
10°
16.8 mm
6
13:00
14°
 
5
19:00
12°
 
3
 07:30     16:52    Daglengte: 9:22 Donderdag 21 Nov
01:00
12°
21.5 mm
3
07:00
11°
48.3 mm
2
13:00
12°
47.1 mm
3
19:00
11°
32.9 mm
3
 07:31     16:51    Daglengte: 9:20 Vrijdag 22 Nov
01:00
11°
71.7 mm
3
07:00
10°
108.2 mm
4
Locatie info
Region: Liguria
Latitude: 44.4264°N
Longitude: 8.9152°E
126 masl
Temp/Neerslag /Baro Onweer/Dauwpunt
    Temp Baro 1h Neerslag Dauwpunt Wind UV Bewolking  
 07:27     16:53    Daglengte: 9:26 Vandaag
10:00
Voelt als: 5.1°
1011.5 hPa 27.5 mm
48%
7.5°
8
Windvlaag: -6.1 km/h
89%
11:00
Voelt als: 5.3°
1011.9 hPa 6.6 mm
82%
7.6°
8
Windvlaag: -6.4 km/h
90%
12:00
Voelt als: 5.6°
1011.5 hPa 6.0 mm
82%
7.9°
8
Windvlaag: -6.3 km/h
90%
13:00
10°
Voelt als: 5.9°
1011.3 hPa 5.8 mm
82%
7.9°
9
Windvlaag: -6 km/h
89%
14:00
10°
Voelt als: 6.6°
1011.2 hPa 6.2 mm
82%
8.2°
8
Windvlaag: -5.9 km/h
89%
15:00
10°
1011.6 hPa 6.7 mm
82%
8.5°
8
Windvlaag: -5.8 km/h
88%
16:00
10°
1012.0 hPa 8.3 mm
82%
8.7°
7
Windvlaag: -5.5 km/h
90%
17:00
10°
1012.3 hPa 7.9 mm
82%
8.8°
7
Windvlaag: -5.1 km/h
88%
18:00
10°
1012.5 hPa 6.9 mm
82%
9.0°
7
Windvlaag: -5 km/h
87%
19:00
11°
1012.9 hPa 6.7 mm
82%
9.2°
6
Windvlaag: -4.9 km/h
85%
20:00
11°
1013.2 hPa 6.7 mm
82%
9.3°
6
Windvlaag: -4.6 km/h
85%
21:00
11°
1013.5 hPa 6.5 mm
82%
9.5°
6
Windvlaag: -4.2 km/h
77%
22:00
11°
1013.6 hPa 6.3 mm
82%
9.6°
6
Windvlaag: -3.8 km/h
76%
23:00
11°
1013.6 hPa 6.4 mm
82%
9.7°
6
Windvlaag: -3.7 km/h
86%
 07:28     16:52    Daglengte: 9:24 Morgen
00:00
11°
1013.6 hPa 6.3 mm
82%
9.6°
6
Windvlaag: -3.6 km/h
83%
01:00
11°
1013.6 hPa 6.3 mm
82%
9.4°
6
Windvlaag: -3.5 km/h
79%
02:00
11°
1013.6 hPa 8.5 mm
82%
9.4°
5
Windvlaag: -3.6 km/h
75%
03:00
11°
1013.4 hPa 8.3 mm
82%
9.1°
5
Windvlaag: -3.8 km/h
66%
04:00
11°
1013.2 hPa
82%
9.0°
5
Windvlaag: -3.9 km/h
58%
05:00
11°
1013.1 hPa
82%
8.9°
6
Windvlaag: -3.9 km/h
44%
06:00
10°
1012.9 hPa
82%
8.8°
6
Windvlaag: -4 km/h
43%
07:00
10°
1013.0 hPa
82%
8.8°
6
Windvlaag: -4.1 km/h
54%
08:00
10°
1013.1 hPa
75%
8.8°
6
Windvlaag: -4 km/h
54%
09:00
11°
1013.2 hPa
36%
8.7°
6
Windvlaag: -4 km/h
48%
10:00
12°
1013.2 hPa
22%
8.7°
6
Windvlaag: -4 km/h
49%
11:00
13°
1013.1 hPa
16%
9.0°
6
Windvlaag: -3.9 km/h
35%
12:00
13°
1012.6 hPa
14%
9.2°
5
Windvlaag: -3.6 km/h
31%
13:00
14°
1012.2 hPa
14%
9.1°
5
Windvlaag: -3.5 km/h
48%
14:00
14°
1012.0 hPa
14%
9.1°
5
Windvlaag: -3.4 km/h
50%
15:00
14°
1011.7 hPa
14%
9.5°
4
Windvlaag: -3.1 km/h
30%
16:00
13°
1011.6 hPa
14%
9.6°
4
Windvlaag: -2.5 km/h
19%
17:00
13°
1011.6 hPa
16%
9.5°
3
Windvlaag: -1.8 km/h
24%
18:00
12°
1011.8 hPa
26%
9.4°
3
Windvlaag: -1.5 km/h
26%
19:00
12°
1012.0 hPa
30%
9.4°
3
Windvlaag: -1.5 km/h
48%
20:00
12°
1012.0 hPa
67%
9.6°
3
Windvlaag: -1.5 km/h
54%
21:00
11°
1012.0 hPa
72%
9.7°
2
Windvlaag: -1.5 km/h
67%
22:00
12°
1012.2 hPa
76%
10.0°
2
Windvlaag: -1.3 km/h
65%
23:00
12°
1012.1 hPa 8.7 mm
79%
10.3°
2
Windvlaag: -0.9 km/h
83%
 07:30     16:52    Daglengte: 9:22 Donderdag 21 Nov
00:00
12°
1011.9 hPa 6.3 mm
81%
9.8°
2
Windvlaag: -0.9 km/h
73%
01:00
12°
1011.8 hPa 6.5 mm
82%
9.2°
3
Windvlaag: -0.7 km/h
82%
02:00
12°
1011.8 hPa 6.8 mm
82%
9.0°
3
Windvlaag: -1.1 km/h
81%
03:00
12°
1011.6 hPa 9.1 mm
82%
9.1°
3
Windvlaag: -1.2 km/h
77%
04:00
11°
1011.4 hPa 9.2 mm
99%
10.5°
2
Windvlaag: -1.1 km/h
74%
05:00
11°
1011.4 hPa 8.5 mm
95%
10.5°
2
Windvlaag: -0.9 km/h
78%
06:00
11°
1011.4 hPa 8.5 mm
97%
10.6°
2
Windvlaag: -0.9 km/h
91%
07:00
11°
1011.6 hPa 6.3 mm
92%
10.7°
2
Windvlaag: -0.6 km/h
90%
08:00
11°
1011.9 hPa 6.4 mm
88%
10.6°
2
Windvlaag: 0.9 km/h
92%
09:00
12°
1012.3 hPa 9.2 mm
89%
10.6°
2
Windvlaag: 1.3 km/h
93%
10:00
12°
1012.5 hPa 6.5 mm
88%
10.2°
2
Windvlaag: 1.7 km/h
89%
11:00
13°
1012.5 hPa 8.9 mm
88%
10.4°
2
Windvlaag: 1.7 km/h
86%
12:00
13°
1012.1 hPa 9.2 mm
93%
10.3°
2
Windvlaag: 1.1 km/h
94%
13:00
12°
1011.7 hPa 7.0 mm
100%
10.4°
3
Windvlaag: 1.9 km/h
97%
14:00
12°
1011.5 hPa 7.5 mm
100%
11.1°
4
Windvlaag: 2.3 km/h
98%
15:00
12°
1011.5 hPa 7.6 mm
100%
11.6°
5
Windvlaag: 2.3 km/h
99%
16:00
12°
1011.6 hPa 7.7 mm
100%
11.6°
3
Windvlaag: 1.7 km/h
96%
17:00
12°
1011.5 hPa 10.1 mm
100%
10.8°
3
Windvlaag: 0.3 km/h
89%
18:00
11°
1011.8 hPa
94%
10.7°
4
Windvlaag: -0.7 km/h
84%
19:00
11°
1011.9 hPa
94%
10.4°
3
Windvlaag: -0.9 km/h
94%
20:00
11°
1012.1 hPa 12.4 mm
100%
10.6°
4
Windvlaag: -1.5 km/h
92%
21:00
11°
1012.1 hPa 8.9 mm
100%
10.2°
3
Windvlaag: -2 km/h
89%
22:00
11°
1012.1 hPa 12.6 mm
100%
10.0°
4
Windvlaag: -2.8 km/h
89%
23:00
11°
1012.0 hPa 12.6 mm
100%
9.8°
3
Windvlaag: -3 km/h
93%
 07:31     16:51    Daglengte: 9:20 Vrijdag 22 Nov
00:00
11°
1011.9 hPa 12.6 mm
100%
9.4°
3
Windvlaag: -3 km/h
93%
01:00
11°
1011.6 hPa 12.5 mm
100%
8.9°
3
Windvlaag: -3.1 km/h
91%
02:00
11°
1011.2 hPa 20.7 mm
100%
8.5°
3
Windvlaag: 0.4 km/h
87%
03:00
11°
1010.9 hPa 20.8 mm
100%
8.7°
4
Windvlaag: 0.7 km/h
92%
04:00
11°
1010.6 hPa 21.2 mm
100%
9.1°
3
Windvlaag: 0.7 km/h
91%
05:00
10°
1010.6 hPa 13.4 mm
100%
9.2°
3
Windvlaag: 0.9 km/h
96%
06:00
10°
1010.6 hPa 15.1 mm
100%
9.3°
4
Windvlaag: 1 km/h
94%
07:00
10°
1010.7 hPa 17.0 mm
100%
9.1°
4
Windvlaag: 0.8 km/h
98%
08:00
11°
1010.2 hPa 82.7 mm
100%
9.3°
4
Windvlaag: 5.4 km/h
94%
09:00
11°
1010.2 hPa 82.9 mm
100%
9.5°
4
Windvlaag: 4.7 km/h
91%
Temp/Neerslag /Baro Onweer/Dauwpunt
    Temp Baro Neerslag Dauwpunt Wind Bewolking  
 07:27     16:53    Daglengte: 9:26 Vandaag
10:00
Voelt als: 5.1°
1011.5 hPa 27.5 mm 7.5°
8
89%
13:00
10°
Voelt als: 5.9°
1011.3 hPa 18.4 mm 7.9°
9
89%
16:00
10°
1012.0 hPa 21.2 mm 8.7°
7
90%
19:00
11°
1012.9 hPa 21.5 mm 9.2°
6
85%
22:00
11°
1013.6 hPa 19.5 mm 9.6°
6
76%
 07:28     16:52    Daglengte: 9:24 Morgen
01:00
11°
1013.6 hPa 19.0 mm 9.4°
6
79%
04:00
11°
1013.2 hPa 16.8 mm 9.0°
5
58%
07:00
10°
1013.0 hPa   8.8°
6
54%
10:00
12°
1013.2 hPa   8.7°
6
49%
13:00
14°
1012.2 hPa   9.1°
5
48%
16:00
13°
1011.6 hPa   9.6°
4
19%
19:00
12°
1012.0 hPa   9.4°
3
48%
22:00
12°
1012.2 hPa   10.0°
2
65%
 07:30     16:52    Daglengte: 9:22 Donderdag 21 Nov
01:00
12°
1011.8 hPa 21.5 mm 9.2°
3
82%
04:00
11°
1011.4 hPa 25.1 mm 10.5°
2
74%
07:00
11°
1011.6 hPa 23.3 mm 10.7°
2
90%
10:00
12°
1012.5 hPa 22.1 mm 10.2°
2
89%
13:00
12°
1011.7 hPa 25.1 mm 10.4°
3
97%
16:00
12°
1011.6 hPa 22.8 mm 11.6°
3
96%
19:00
11°
1011.9 hPa 10.1 mm 10.4°
3
94%
22:00
11°
1012.1 hPa 33.9 mm 10.0°
4
89%
 07:31     16:51    Daglengte: 9:20 Vrijdag 22 Nov
01:00
11°
1011.6 hPa 37.7 mm 8.9°
3
91%
04:00
11°
1010.6 hPa 62.7 mm 9.1°
3
91%
07:00
10°
1010.7 hPa 45.4 mm 9.1°
4
98%
10:00
11°
1010.1 hPa 248.7 mm 9.6°
4
93%
13:00
12°
1009.8 hPa 250.8 mm 10.1°
4
91%
16:00
11°
1010.4 hPa 58.9 mm 10.7°
4
78%
19:00
11°
1010.7 hPa 60.6 mm 11.1°
4
73%
22:00
11°
1010.7 hPa 60.7 mm 10.6°
4
82%
 07:32     16:50    Daglengte: 9:18 Zaterdag 23 Nov
01:00
11°
1010.6 hPa 60.7 mm 10.2°
3
92%
04:00
12°
1009.4 hPa 61.5 mm 10.7°
5
92%
07:00
12°
1008.2 hPa 66.8 mm 11.2°
7
92%
10:00
13°
1008.0 hPa 70.9 mm 12.0°
7
92%
13:00
14°
1007.6 hPa 75.8 mm 12.7°
7
92%
16:00
14°
1008.0 hPa 82.6 mm 12.1°
6
92%
19:00
14°
1008.5 hPa 101.8 mm 11.6°
6
92%
22:00
14°
1009.9 hPa 112.8 mm 11.8°
6
92%
 07:33     16:49    Daglengte: 9:16 Zondag 24 Nov
01:00
14°
1011.2 hPa 117.0 mm 12.0°
6
92%
04:00
13°
1011.4 hPa 119.2 mm 11.1°
7
89%
07:00
12°
1011.6 hPa 119.3 mm 10.3°
8
87%
10:00
14°
1011.5 hPa 119.4 mm 11.3°
9
76%
13:00
15°
1011.2 hPa 119.4 mm 12.3°
10
65%
16:00
15°
1011.5 hPa 119.4 mm 11.8°
11
77%
19:00
14°
1012.0 hPa 119.4 mm 11.3°
11
89%
22:00
14°
1012.5 hPa 119.4 mm 11.3°
10
49%
 07:35     16:49    Daglengte: 9:14 Maandag 25 Nov
01:00
13°
1012.9 hPa 119.4 mm 11.3°
9
9%
04:00
13°
1012.8 hPa 119.4 mm 10.8°
8
9%
07:00
13°
1012.8 hPa 119.4 mm 10.2°
8
10%
10:00
15°
1012.7 hPa 119.4 mm 10.7°
7
5%
13:00
17°
1012.5 hPa 119.4 mm 11.0°
7
0%
16:00
15°
1012.6 hPa 119.4 mm 10.9°
7
0%
19:00
13°
1012.9 hPa 119.4 mm 10.4°
6
0%
22:00
12°
1013.2 hPa 119.4 mm 9.7°
6
0%
 07:36     16:48    Daglengte: 9:12 Dinsdag 26 Nov
01:00
12°
1013.5 hPa 119.4 mm 9.1°
6
0%
04:00
11°
1013.4 hPa 119.4 mm 9.1°
6
0%
07:00
11°
1013.4 hPa 238.9 mm 8.9°
6
0%
13:00
15°
1013.2 hPa 239.0 mm 8.3°
3
1%
19:00
11°
1013.2 hPa 239.0 mm 10.0°
5
8%
 07:37     16:48    Daglengte: 9:11 Woensdag 27 Nov
01:00
10°
Voelt als: 7.7°
1013.2 hPa 239.0 mm 9.2°
4
4%
07:00
11°
1012.7 hPa 239.0 mm 11.6°
2
77%
13:00
13°
1012.5 hPa 239.2 mm 11.8°
6
82%
19:00
12°
1012.3 hPa 239.5 mm 11.9°
1
90%
 07:38     16:47    Daglengte: 9:09 Donderdag 28 Nov
01:00
11°
1011.3 hPa 239.5 mm 9.9°
3
92%
07:00
10°
1011.0 hPa 239.6 mm 9.1°
7
85%
13:00
11°
1011.9 hPa 239.6 mm 9.3°
8
92%
19:00
10°
1013.2 hPa 239.9 mm 9.0°
7
61%
 07:39     16:47    Daglengte: 9:08 Vrijdag 29 Nov
01:00
10°
1014.6 hPa 240.9 mm 9.5°
8
9%
07:00
12°
1012.8 hPa 1.2 mm 9.5°
1
50%
13:00
14°
1013.4 hPa 1.4 mm 11.1°
0
49%
19:00
13°
1015.4 hPa 0.4 mm 10.3°
0
42%
 07:40     16:46    Daglengte: 9:06 Zaterdag 30 Nov
01:00
12°
1017.0 hPa 0.2 mm 10.0°
0
40%
07:00
12°
1017.5 hPa 0.3 mm 9.7°
0
44%
13:00
15°
1017.6 hPa 0.7 mm 11.4°
0
48%
19:00
13°
1017.8 hPa 0.8 mm 10.9°
1
51%
 07:42     16:46    Daglengte: 9:04 Zondag 01 Dec
01:00
13°
1017.2 hPa 1.5 mm 10.8°
2
54%
07:00
13°
1015.9 hPa 1.7 mm 10.4°
1
57%
13:00
15°
1014.9 hPa 1.0 mm 11.6°
1
60%
19:00
13°
1014.6 hPa 1.0 mm 10.7°
1
57%
 07:43     16:46    Daglengte: 9:03 Maandag 02 Dec
01:00
13°
1014.3 hPa 1.3 mm 10.3°
0
52%
07:00
12°
1013.8 hPa 1.2 mm 9.5°
1
58%
13:00
14°
1013.7 hPa 0.1 mm 10.2°
1
60%
19:00
12°
1013.9 hPa 0.7 mm 9.3°
1
55%
 07:44     16:45    Daglengte: 9:01 Dinsdag 03 Dec
01:00
11°
1013.5 hPa 1.0 mm 8.9°
1
54%
07:00
11°
1013.2 hPa 1.5 mm 8.5°
1
59%
13:00
13°
1013.4 hPa 0.1 mm 9.1°
2
56%
19:00
11°
1014.6 hPa 0.3 mm 8.3°
1
49%
 07:45     16:45    Daglengte: 9:00 Woensdag 04 Dec
01:00
11°
1015.4 hPa 0.2 mm 7.6°
2
44%
07:00
10°
Voelt als: 8.9°
1015.6 hPa 0.4 mm 7.0°
2
37%
  CAPE Lifted Index Hail Supercell Tornado SRH 3km CL BTM PRES CL TOP PRES Swiss DWD icon SMHI TS
 07:27     16:53    Daglengte: 9:26 Vandaag
10:00 19 J/kg 0.2 K 0 % 0 % 0 % 0 m²/s² 0 0 1.49 61
11:00 15 J/kg -0.6 K 0 % 0 % 0 % 0 m²/s² 0 0 1.74 61
12:00 4 J/kg -0.3 K 0 % 0 % 0 % 0 m²/s² 0 0 1.62 61
13:00 0 J/kg -0.5 K 0 % 0 % 0 % 0 m²/s² 0 0 1.24 61
14:00 0 J/kg 0.5 K 0 % 0 % 0 % 0 m²/s² 0 0 1.79 61
15:00 0 J/kg 1.5 K 0 % 0 % 0 % 0 m²/s² 0 0 2.34 61
16:00 1 J/kg 0.8 K 0 % 0 % 0 % 0 m²/s² 0 0 1.13 61
17:00 5 J/kg 0.8 K 0 % 0 % 0 % 0 m²/s² 0 0 1.61 61
18:00 1 J/kg 0.1 K 0 % 0 % 0 % 0 m²/s² 0 0 1.24 61
19:00 21 J/kg -0.2 K 0 % 0 % 0 % 0 m²/s² 0 0 0.85 61
20:00 64 J/kg 0.1 K 0 % 0 % 0 % 0 m²/s² 0 0 1 61
21:00 110 J/kg -0.2 K 0 % 0 % 0 % 0 m²/s² 0 0 0.73 61
22:00 88 J/kg 0.2 K 0 % 0 % 0 % 0 m²/s² 0 0 0.92 61
23:00 20 J/kg 1.0 K 0 % 0 % 0 % 0 m²/s² 0 0 1.54 61
 07:28     16:52    Daglengte: 9:24 Morgen
00:00 8 J/kg 1.0 K 0 % 0 % 0 % 0 m²/s² 0 0 1.48 61
01:00 18 J/kg 1.1 K 0 % 0 % 0 % 0 m²/s² 0 0 1.82 61
02:00 14 J/kg 1.2 K 0 % 0 % 0 % 0 m²/s² 0 0 2.37 61
03:00 9 J/kg 1.5 K 0 % 0 % 0 % 0 m²/s² 0 0 2.94 61
04:00 0 J/kg 1.7 K 0 % 0 % 0 % 0 m²/s² 0 0 3.65 3
05:00 0 J/kg 1.6 K 0 % 0 % 0 % 0 m²/s² 0 0 3.55 61
06:00 0 J/kg 1.7 K 0 % 0 % 0 % 0 m²/s² 0 0 3.47 61
07:00 0 J/kg 2.1 K 0 % 0 % 0 % 0 m²/s² 0 0 3.93 61
08:00 0 J/kg 3.0 K 0 % 0 % 0 % 0 m²/s² 0 0 4.71 3
09:00 0 J/kg 3.2 K 0 % 0 % 0 % 0 m²/s² 0 0 4.7 3
10:00 0 J/kg 3.3 K 0 % 0 % 0 % 0 m²/s² 0 0 4.8 3
11:00 0 J/kg 3.1 K 0 % 0 % 0 % 0 m²/s² 0 0 4.6 2
12:00 0 J/kg 2.9 K 0 % 0 % 0 % 0 m²/s² 0 0 4.28 2
13:00 0 J/kg 2.7 K 0 % 0 % 0 % 0 m²/s² 0 0 4.14 3
14:00 1 J/kg 2.4 K 0 % 0 % 0 % 0 m²/s² 0 0 3.96 3
15:00 0 J/kg 2.3 K 0 % 0 % 0 % 0 m²/s² 0 0 4.04 2
16:00 0 J/kg 2.5 K 0 % 0 % 0 % 0 m²/s² 0 0 4.3 2
17:00 0 J/kg 2.8 K 0 % 0 % 0 % 0 m²/s² 0 0 4.66 2
18:00 1 J/kg 2.9 K 0 % 0 % 0 % 0 m²/s² 0 0 4.76 2
19:00 2 J/kg 2.9 K 0 % 0 % 0 % 0 m²/s² 0 0 4.7 2
20:00 0 J/kg 2.5 K 0 % 0 % 0 % 0 m²/s² 0 0 4.24 3
21:00 13 J/kg 2.0 K 0 % 0 % 0 % 0 m²/s² 0 0 3.74 3
22:00 32 J/kg 1.4 K 0 % 0 % 0 % 0 m²/s² 0 0 3.2 80
23:00 44 J/kg 1.1 K 0 % 0 % 0 % 0 m²/s² 0 0 3.47 80
 07:30     16:52    Daglengte: 9:22 Donderdag 21 Nov
00:00 29 J/kg 1.9 K 0 % 0 % 0 % 0 m²/s² 0 0 5.2 80
01:00 17 J/kg 2.9 K 0 % 0 % 0 % 0 m²/s² 0 0 6.38 80
02:00 14 J/kg 3.7 K 0 % 0 % 0 % 0 m²/s² 0 0 7.57 80
03:00 46 J/kg 3.3 K 0 % 0 % 0 % 0 m²/s² 0 0 7.26 80
04:00 91 J/kg 2.5 K 0 % 0 % 0 % 0 m²/s² 0 0 7.12 80
05:00 94 J/kg 2.1 K 0 % 0 % 0 % 0 m²/s² 0 0 8.31 80
06:00 82 J/kg 1.8 K 0 % 0 % 0 % 0 m²/s² 0 0 7.32 80
07:00 129 J/kg 1.1 K 0 % 0 % 0 % 0 m²/s² 0 0 4.37 80
08:00 197 J/kg 0.7 K 0 % 0 % 0 % 0 m²/s² 0 0 2.92 80
09:00 217 J/kg 0.6 K 0 % 0 % 0 % 0 m²/s² 0 0 0.96 3
10:00 160 J/kg 1.3 K 0 % 0 % 0 % 0 m²/s² 0 0 3.19 80
11:00 202 J/kg 1.0 K 0 % 0 % 0 % 0 m²/s² 0 0 6.31 80
12:00 201 J/kg 0.9 K 0 % 0 % 0 % 0 m²/s² 0 0 6.51 3
13:00 190 J/kg 0.5 K 0 % 0 % 0 % 0 m²/s² 0 0 4.04 80
14:00 206 J/kg -0.1 K 0 % 0 % 0 % 0 m²/s² 0 0 0.83 80
15:00 67 J/kg 1.2 K 0 % 0 % 0 % 0 m²/s² 0 0 1.47 80
16:00 85 J/kg 0.9 K 0 % 0 % 0 % 0 m²/s² 0 0 1.11 3
17:00 30 J/kg 1.2 K 0 % 0 % 0 % 0 m²/s² 0 0 1.44 3
18:00 4 J/kg 1.0 K 0 % 0 % 0 % 0 m²/s² 0 0 1.3 3
19:00 29 J/kg 0.7 K 0 % 0 % 0 % 0 m²/s² 0 0 0.82 3
20:00 81 J/kg 0.9 K 0 % 0 % 0 % 0 m²/s² 0 0 1.17 61
21:00 48 J/kg 1.1 K 0 % 0 % 0 % 0 m²/s² 0 0 1.55 61
22:00 3 J/kg 1.4 K 0 % 0 % 0 % 0 m²/s² 0 0 1.82 61
23:00 2 J/kg 1.3 K 0 % 0 % 0 % 0 m²/s² 0 0 1.54 61
 07:31     16:51    Daglengte: 9:20 Vrijdag 22 Nov
00:00 2 J/kg 0.8 K 0 % 0 % 0 % 0 m²/s² 0 0 1.25 61
01:00 3 J/kg -0.2 K 0 % 0 % 0 % 0 m²/s² 0 0 0.58 61
02:00 1 J/kg -0.5 K 0 % 0 % 0 % 0 m²/s² 0 0 0.4 61
03:00 0 J/kg -0.5 K 0 % 0 % 0 % 0 m²/s² 0 0 0.52 61
04:00 0 J/kg -0.5 K 0 % 0 % 0 % 0 m²/s² 0 0 0.49 61
05:00 23 J/kg -0.4 K 0 % 0 % 0 % 0 m²/s² 0 0 0.59 61
06:00 24 J/kg -0.3 K 0 % 0 % 0 % 0 m²/s² 0 0 -0.09 61
07:00 5 J/kg 0.1 K 0 % 0 % 0 % 0 m²/s² 0 0 0.58 61
08:00 3 J/kg 0.1 K 0 % 0 % 0 % 0 m²/s² 0 0 1.27
09:00 23 J/kg 0.3 K 0 % 0 % 0 % 0 m²/s² 0 0 1.14
Temp Baro Wind Neerslag
  EWN Forecast EWN WRFDA DWD ICON FMI HIRLAM MET Norway GFS
 07:27     16:53    Daglengte: 9:26 Vandaag
10:00 8.7° 1011.5 hPa 7.6 m/s 27.5 mm 10.6° 1007.9 hPa 3.4 m/s 29.5 mm 7.8° 1012.9 hPa 5.3 m/s 31.4 mm 11.8° 1010.5 hPa 3.6 m/s 0.0 mm 8.1° 1011.7 hPa 11.6 m/s 4.1 mm 7.7° 1012.4 hPa 5.8 m/s
13:00 9.5° 1011.3 hPa 8.6 m/s 18.4 mm 10.8° 1008.4 hPa 6.0 m/s 101.0 mm 8.6° 1012.6 hPa 4.7 m/s 3.1 mm 10.7° 1010.2 hPa 7.2 m/s 0.0 mm 9.3° 1011.5 hPa 10.6 m/s 3.7 mm 8.2° 1012.6 hPa 5.0 m/s
16:00 10.3° 1012.0 hPa 7.0 m/s 21.2 mm 11.2° 1009.1 hPa 4.7 m/s 110.7 mm 8.8° 1013.0 hPa 3.9 m/s 4.4 mm 12.7° 1010.5 hPa 5.4 m/s 0.0 mm 10.1° 1012.2 hPa 9.3 m/s 2.0 mm 8.8° 1012.8 hPa 5.1 m/s
19:00 10.6° 1012.9 hPa 6.3 m/s 21.5 mm 11.9° 1010.0 hPa 3.5 m/s 120.9 mm 9.3° 1013.5 hPa 3.6 m/s 3.3 mm 13.5° 1011.4 hPa 4.3 m/s 0.0 mm 10.2° 1013.3 hPa 8.4 m/s 3.1 mm 9.2° 1014.1 hPa 4.7 m/s
22:00 11.1° 1013.6 hPa 6.3 m/s 19.5 mm 12.1° 1010.7 hPa 3.0 m/s 122.2 mm 9.6° 1014.2 hPa 3.3 m/s 0.7 mm 14.8° 1012.5 hPa 6.5 m/s 0.0 mm 10.6° 1013.9 hPa 7.0 m/s 3.3 mm 9.6° 1014.7 hPa 4.0 m/s
 07:28     16:52    Daglengte: 9:24 Morgen
01:00 10.9° 1013.6 hPa 5.6 m/s 19.0 mm 11.3° 1011.1 hPa 3.1 m/s 123.3 mm 9.8° 1014.0 hPa 3.2 m/s 0.5 mm 14.3° 1012.7 hPa 5.1 m/s 0.0 mm 10.4° 1014.2 hPa 6.4 m/s 2.1 mm 9.8° 1014.6 hPa 4.3 m/s
04:00 10.8° 1013.2 hPa 5.2 m/s 16.8 mm 10.9° 1010.0 hPa 4.3 m/s 123.5 mm 10.2° 1013.6 hPa 2.9 m/s 0.5 mm 13.3° 1012.5 hPa 3.7 m/s 0.0 mm 9.9° 1014.0 hPa 6.2 m/s 0.5 mm 9.6° 1013.8 hPa 3.8 m/s
07:00 10.4° 1013.0 hPa 6.1 m/s 0.0 mm 10.3° 1010.5 hPa 5.9 m/s 123.5 mm 10.2° 1013.6 hPa 2.8 m/s 0.5 mm 12.1° 1012.7 hPa 4.2 m/s 0.0 mm 9.5° 1013.6 hPa 7.1 m/s 0.0 mm 9.4° 1013.7 hPa 3.4 m/s
10:00 11.7° 1013.2 hPa 5.7 m/s 0.0 mm 12.3° 1010.7 hPa 5.0 m/s 123.5 mm 11.3° 1013.9 hPa 2.6 m/s 0.0 mm 13.2° 1012.7 hPa 3.7 m/s 0.0 mm 11.2° 1013.8 hPa 6.9 m/s 0.0 mm 11.0° 1014.0 hPa 3.1 m/s
13:00 13.7° 1012.2 hPa 4.6 m/s 0.0 mm 13.4° 1009.9 hPa 5.3 m/s 123.5 mm 13.6° 1012.7 hPa 2.0 m/s 0.0 mm 15.2° 1011.6 hPa 0.6 m/s 0.0 mm 13.1° 1013.2 hPa 5.2 m/s 0.0 mm 12.7° 1013.3 hPa 2.1 m/s
16:00 13.4° 1011.6 hPa 3.7 m/s 0.0 mm 13.3° 1009.3 hPa 3.7 m/s 123.5 mm 13.4° 1011.8 hPa 1.2 m/s 0.0 mm 15.2° 1011.2 hPa 1.4 m/s 0.0 mm 12.3° 1012.8 hPa 4.6 m/s 0.0 mm 12.2° 1012.6 hPa 0.6 m/s
19:00 11.7° 1012.0 hPa 2.9 m/s 0.0 mm 12.0° 1009.3 hPa 0.3 m/s 123.5 mm 10.8° 1012.7 hPa 1.4 m/s 0.0 mm 13.6° 1011.5 hPa 2.0 m/s 0.0 mm 11.0° 1012.8 hPa 4.3 m/s 0.0 mm 10.1° 1013.7 hPa 0.7 m/s
22:00 11.5° 1012.2 hPa 1.8 m/s 0.0 mm 11.8° 1009.6 hPa 1.7 m/s 123.6 mm 10.4° 1012.6 hPa 1.3 m/s 0.6 mm 12.6° 1012.0 hPa 0.6 m/s 0.0 mm 10.8° 1013.0 hPa 2.0 m/s 0.0 mm 9.7° 1014.4 hPa 0.9 m/s
 07:30     16:52    Daglengte: 9:22 Donderdag 21 Nov
01:00 12.0° 1011.8 hPa 3.0 m/s 21.5 mm 12.7° 1009.2 hPa 5.2 m/s 124.0 mm 11.4° 1012.1 hPa 2.4 m/s 2.5 mm 13.6° 1011.7 hPa 4.8 m/s 0.0 mm 11.2° 1012.6 hPa 0.6 m/s 0.9 mm 9.9° 1014.1 hPa 0.9 m/s
04:00 11.5° 1011.4 hPa 2.1 m/s 25.1 mm 12.6° 1008.8 hPa 5.1 m/s 124.1 mm 11.3° 1012.6 hPa 1.8 m/s 3.5 mm 11.0° 1011.6 hPa 0.9 m/s 0.0 mm 9.8° 1013.4 hPa 0.9 m/s
07:00 11.3° 1011.6 hPa 2.0 m/s 23.3 mm 12.6° 1008.0 hPa 3.5 m/s 124.2 mm 10.8° 1012.5 hPa 1.3 m/s 0.9 mm 10.9° 1011.9 hPa 1.8 m/s 0.6 mm 9.7° 1013.4 hPa 0.8 m/s
10:00 12.1° 1012.5 hPa 2.1 m/s 22.1 mm 12.5° 1009.0 hPa 4.2 m/s 125.5 mm 11.7° 1013.4 hPa 0.9 m/s 0.4 mm 11.7° 1012.8 hPa 2.1 m/s 4.2 mm 11.7° 1013.9 hPa 1.6 m/s
13:00 12.4° 1011.7 hPa 2.8 m/s 25.1 mm 14.1° 1009.3 hPa 3.8 m/s 126.5 mm 12.1° 1013.0 hPa 0.8 m/s 0.4 mm 12.0° 1011.7 hPa 2.7 m/s 4.6 mm 12.4° 1013.8 hPa 1.6 m/s
16:00 11.9° 1011.6 hPa 2.8 m/s 22.8 mm 11.8° 1009.5 hPa 2.7 m/s 132.9 mm 11.8° 1012.6 hPa 0.8 m/s 0.9 mm 11.3° 1011.6 hPa 4.9 m/s 4.2 mm 11.5° 1013.4 hPa 1.3 m/s
19:00 11.3° 1011.9 hPa 3.1 m/s 10.1 mm 11.8° 1009.8 hPa 1.6 m/s 155.5 mm 10.6° 1013.3 hPa 1.4 m/s 0.2 mm 11.3° 1011.9 hPa 3.8 m/s 1.4 mm 9.6° 1014.5 hPa 1.0 m/s
22:00 11.1° 1012.1 hPa 3.5 m/s 33.9 mm 12.2° 1010.2 hPa 4.0 m/s 181.4 mm 10.3° 1013.7 hPa 1.7 m/s 0.9 mm 11.1° 1011.9 hPa 3.4 m/s 2.0 mm 9.2° 1015.4 hPa 1.7 m/s
 07:31     16:51    Daglengte: 9:20 Vrijdag 22 Nov
01:00 10.9° 1011.6 hPa 3.2 m/s 37.7 mm 11.7° 1010.4 hPa 2.3 m/s 184.3 mm 10.1° 1013.2 hPa 1.9 m/s 1.1 mm 10.9° 1011.3 hPa 3.0 m/s 1.0 mm 8.5° 1015.6 hPa 2.4 m/s
04:00 10.6° 1010.6 hPa 3.3 m/s 62.7 mm 11.2° 1010.0 hPa 5.0 m/s 186.3 mm 9.9° 1013.1 hPa 2.0 m/s 0.9 mm 10.7° 1010.2 hPa 3.3 m/s 0.0 mm 8.1° 1015.3 hPa 3.1 m/s
07:00 10.2° 1010.7 hPa 4.1 m/s 45.4 mm 10.8° 1010.2 hPa 5.0 m/s 218.4 mm 9.8° 1013.2 hPa 2.2 m/s 1.0 mm 10.2° 1010.3 hPa 4.4 m/s 3.4 mm 8.0° 1015.5 hPa 3.2 m/s
10:00 11.1° 1010.1 hPa 4.0 m/s 248.7 mm 12.1° 1010.7 hPa 3.5 m/s 248.7 mm 10.9° 1010.0 hPa 4.1 m/s 9.9° 1015.7 hPa 2.9 m/s
13:00 11.9° 1009.8 hPa 3.6 m/s 250.8 mm 13.3° 1010.0 hPa 3.1 m/s 250.8 mm 11.7° 1009.8 hPa 3.7 m/s 10.8° 1014.4 hPa 1.8 m/s
16:00 11.1° 1010.4 hPa 3.7 m/s 58.9 mm 11.3° 1010.2 hPa 3.7 m/s 9.3° 1013.2 hPa 3.2 m/s 58.9 mm
19:00 11.0° 1010.7 hPa 3.6 m/s 60.6 mm 11.1° 1010.4 hPa 3.7 m/s 9.6° 1013.8 hPa 2.5 m/s 60.6 mm
22:00 10.9° 1010.7 hPa 3.5 m/s 60.7 mm 11.1° 1010.4 hPa 3.7 m/s 9.5° 1013.8 hPa 2.4 m/s 60.7 mm
 07:32     16:50    Daglengte: 9:18 Zaterdag 23 Nov
01:00 10.9° 1010.6 hPa 3.5 m/s 60.7 mm 11.0° 1010.4 hPa 3.6 m/s 9.4° 1012.6 hPa 2.1 m/s 60.7 mm
04:00 11.6° 1009.4 hPa 5.1 m/s 61.5 mm 11.8° 1009.2 hPa 5.3 m/s 9.9° 1010.7 hPa 2.3 m/s 61.5 mm
07:00 12.3° 1008.2 hPa 6.7 m/s 66.8 mm 12.5° 1008.1 hPa 7.1 m/s 10.5° 1009.2 hPa 2.9 m/s 66.8 mm
10:00 13.1° 1008.0 hPa 7.2 m/s 70.9 mm 13.3° 1007.9 hPa 7.3 m/s 11.3° 1008.9 hPa 5.0 m/s 70.9 mm
13:00 13.9° 1007.6 hPa 7.3 m/s 75.8 mm 14.1° 1007.7 hPa 7.6 m/s 11.2° 1007.0 hPa 4.0 m/s 75.8 mm
16:00 13.7° 1008.0 hPa 6.4 m/s 82.6 mm 14.0° 1008.2 hPa 6.7 m/s 10.6° 1005.9 hPa 2.8 m/s 82.6 mm
19:00 13.6° 1008.5 hPa 5.5 m/s 101.8 mm 13.9° 1008.7 hPa 5.8 m/s 10.5° 1006.4 hPa 2.3 m/s 101.8 mm
22:00 13.7° 1009.9 hPa 6.0 m/s 112.8 mm 13.9° 1010.0 hPa 6.3 m/s 10.7° 1007.8 hPa 2.7 m/s 112.8 mm
 07:33     16:49    Daglengte: 9:16 Zondag 24 Nov
01:00 13.8° 1011.2 hPa 6.5 m/s 117.0 mm 14.0° 1011.4 hPa 6.8 m/s 11.2° 1008.8 hPa 3.2 m/s 117.0 mm
04:00 12.9° 1011.4 hPa 7.3 m/s 119.2 mm 13.1° 1011.5 hPa 7.8 m/s 10.8° 1009.9 hPa 2.1 m/s 119.2 mm
07:00 12.0° 1011.6 hPa 8.3 m/s 119.3 mm 12.1° 1011.6 hPa 8.7 m/s 11.3° 1011.8 hPa 3.8 m/s 119.3 mm
10:00 13.5° 1011.5 hPa 9.4 m/s 119.4 mm 13.7° 1011.2 hPa 9.8 m/s 11.8° 1014.3 hPa 4.7 m/s 119.4 mm
13:00 15.1° 1011.2 hPa 10.4 m/s 119.4 mm 15.3° 1010.9 hPa 10.9 m/s 13.3° 1014.5 hPa 5.3 m/s 119.4 mm
16:00 14.5° 1011.5 hPa 10.9 m/s 119.4 mm 14.7° 1011.2 hPa 11.4 m/s 12.7° 1014.7 hPa 5.3 m/s 119.4 mm
19:00 13.9° 1012.0 hPa 11.3 m/s 119.4 mm 14.1° 1011.6 hPa 11.9 m/s 11.6° 1016.0 hPa 4.5 m/s 119.4 mm
22:00 13.6° 1012.5 hPa 10.2 m/s 119.4 mm 13.8° 1012.0 hPa 10.8 m/s 11.2° 1017.2 hPa 4.4 m/s 119.4 mm
 07:35     16:49    Daglengte: 9:14 Maandag 25 Nov
01:00 13.3° 1012.9 hPa 9.2 m/s 119.4 mm 13.5° 1012.5 hPa 9.6 m/s 10.8° 1017.0 hPa 4.2 m/s 119.4 mm
04:00 12.9° 1012.8 hPa 8.5 m/s 119.4 mm 13.2° 1012.5 hPa 8.9 m/s 10.5° 1016.2 hPa 3.5 m/s 119.4 mm
07:00 12.6° 1012.8 hPa 7.8 m/s 119.4 mm 12.8° 1012.5 hPa 8.3 m/s 10.2° 1016.4 hPa 2.8 m/s 119.4 mm
10:00 14.8° 1012.7 hPa 7.4 m/s 119.4 mm 15.0° 1012.4 hPa 7.9 m/s 12.5° 1016.8 hPa 1.8 m/s 119.4 mm
13:00 17.0° 1012.5 hPa 6.9 m/s 119.4 mm 17.2° 1012.2 hPa 7.5 m/s 14.5° 1015.8 hPa 0.5 m/s 119.4 mm
16:00 15.0° 1012.6 hPa 6.7 m/s 119.4 mm 15.2° 1012.4 hPa 7.2 m/s 12.9° 1015.3 hPa 0.8 m/s 119.4 mm
19:00 13.0° 1012.9 hPa 6.5 m/s 119.4 mm 13.2° 1012.6 hPa 6.9 m/s 11.0° 1015.8 hPa 1.7 m/s 119.4 mm
22:00 12.4° 1013.2 hPa 6.4 m/s 119.4 mm 12.6° 1013.0 hPa 6.8 m/s 10.6° 1016.4 hPa 2.0 m/s 119.4 mm
 07:36     16:48    Daglengte: 9:12 Dinsdag 26 Nov
01:00 11.8° 1013.5 hPa 6.4 m/s 119.4 mm 11.9° 1013.3 hPa 6.8 m/s 10.5° 1016.2 hPa 2.1 m/s 119.4 mm
04:00 11.2° 1013.4 hPa 6.2 m/s 119.4 mm 11.2° 1013.2 hPa 6.5 m/s 11.1° 1015.6 hPa 2.1 m/s 119.4 mm
07:00 10.5° 1013.4 hPa 5.9 m/s 119.5 mm 10.5° 1013.2 hPa 6.3 m/s 11.1° 1015.4 hPa 1.8 m/s 119.5 mm
13:00 15.0° 1013.2 hPa 2.7 m/s 119.5 mm 15.1° 1013.0 hPa 2.8 m/s 14.2° 1015.1 hPa 1.4 m/s 119.5 mm
19:00 10.8° 1013.2 hPa 4.9 m/s 119.5 mm 10.8° 1012.9 hPa 5.2 m/s 11.0° 1016.0 hPa 1.5 m/s 119.5 mm
 07:37     16:48    Daglengte: 9:11 Woensdag 27 Nov
01:00 9.8° 1013.2 hPa 4.2 m/s 119.5 mm 9.8° 1012.9 hPa 4.5 m/s 10.2° 1016.7 hPa 1.1 m/s 119.5 mm
07:00 10.7° 1012.7 hPa 2.5 m/s 119.5 mm 10.7° 1012.4 hPa 2.6 m/s 10.2° 1015.8 hPa 1.1 m/s 119.5 mm
13:00 13.4° 1012.5 hPa 5.7 m/s 119.7 mm 13.4° 1012.3 hPa 6.0 m/s 13.2° 1014.7 hPa 1.8 m/s 119.7 mm
19:00 12.0° 1012.3 hPa 0.8 m/s 119.8 mm 12.1° 1012.2 hPa 0.7 m/s 11.4° 1013.7 hPa 1.8 m/s 119.8 mm
 07:38     16:47    Daglengte: 9:09 Donderdag 28 Nov
01:00 11.0° 1011.3 hPa 3.4 m/s 119.8 mm 11.0° 1011.1 hPa 3.6 m/s 11.1° 1013.2 hPa 1.4 m/s 119.8 mm
07:00 10.1° 1011.0 hPa 7.3 m/s 119.8 mm 10.0° 1010.8 hPa 7.9 m/s 10.9° 1012.6 hPa 1.2 m/s 119.8 mm
13:00 10.9° 1011.9 hPa 7.5 m/s 119.8 mm 10.6° 1011.9 hPa 8.1 m/s 13.7° 1011.5 hPa 1.5 m/s 119.8 mm
19:00 10.4° 1013.2 hPa 7.5 m/s 120.0 mm 10.2° 1013.5 hPa 7.8 m/s 12.8° 1009.3 hPa 3.8 m/s 120.0 mm
 07:39     16:47    Daglengte: 9:08 Vrijdag 29 Nov
01:00 10.4° 1014.6 hPa 8.0 m/s 120.7 mm 10.0° 1015.5 hPa 8.0 m/s 14.4° 1004.7 hPa 7.8 m/s 120.7 mm
07:00 11.6° 1012.8 hPa 0.7 m/s 1.2 mm
13:00 14.4° 1013.4 hPa 0.4 m/s 1.4 mm
19:00 12.8° 1015.4 hPa 0.2 m/s 0.4 mm
 07:40     16:46    Daglengte: 9:06 Zaterdag 30 Nov
01:00 12.3° 1017.0 hPa 0.2 m/s 0.2 mm
07:00 11.9° 1017.5 hPa 0.2 m/s 0.3 mm
13:00 14.7° 1017.6 hPa 0.3 m/s 0.7 mm
19:00 13.4° 1017.8 hPa 1.1 m/s 0.8 mm
 07:42     16:46    Daglengte: 9:04 Zondag 01 Dec
01:00 12.9° 1017.2 hPa 1.5 m/s 1.5 mm
07:00 12.7° 1015.9 hPa 1.5 m/s 1.7 mm
13:00 14.8° 1014.9 hPa 1.0 m/s 1.0 mm
19:00 13.0° 1014.6 hPa 0.6 m/s 1.0 mm
 07:43     16:46    Daglengte: 9:03 Maandag 02 Dec
01:00 12.6° 1014.3 hPa 0.3 m/s 1.3 mm
07:00 11.9° 1013.8 hPa 0.9 m/s 1.2 mm
13:00 13.8° 1013.7 hPa 1.1 m/s 0.1 mm
19:00 12.1° 1013.9 hPa 0.5 m/s 0.7 mm
 07:44     16:45    Daglengte: 9:01 Dinsdag 03 Dec
01:00 11.3° 1013.5 hPa 0.6 m/s 1.0 mm
07:00 10.9° 1013.2 hPa 1.5 m/s 1.5 mm
13:00 13.0° 1013.4 hPa 1.7 m/s 0.1 mm
19:00 11.5° 1014.6 hPa 1.2 m/s 0.3 mm
 07:45     16:45    Daglengte: 9:00 Woensdag 04 Dec
01:00 10.7° 1015.4 hPa 1.8 m/s 0.2 mm
07:00 9.9° 1015.6 hPa 2.3 m/s 0.4 mm
FMI Hirlam - 7.5 km EWN WRFDA - 12 km DWD ICON - 7 km GFS - 25 km Basiskaart






























































Updatetijd (Europe/Amsterdam) Resolutie Lengte Stap
FMI Hirlam 06:00, 12:00, 18:00, 00:00 7.5 km 49h 1h
EWN WRFDA 08:30, 14:30, 20:30, 02:30 12 km 73h 1h
DWD ICON 04:45, 10:45, 16:45, 22:45 7 km 75h 1h
GFS 07:45, 13:45, 19:45, 01:45 25 km 237h 3h
30+ mm
25-30 mm
20-25 mm
15-20 mm
10-15 mm
6-10 mm
4-6 mm
2-4 mm
1-2 mm
0.5-1 mm
0.2-0.5 mm
0.1-0.2 mm
30+ mm
25-30 mm
20-25 mm
15-20 mm
10-15 mm
6-10 mm
4-6 mm
2-4 mm
1-2 mm
0.5-1 mm
0.2-0.5 mm
0.1-0.2 mm
Sneeuwval
Natte sneeuw
Hagel
Vorst
30+ mm
25-30 mm
20-25 mm
15-20 mm
10-15 mm
6-10 mm
4-6 mm
2-4 mm
1-2 mm
0.5-1 mm
0.2-0.5 mm
0.1-0.2 mm
Sneeuwval
Natte sneeuw
Hagel
Vorst
Onweer
50 mm
40 mm
30 mm
26 mm
22 mm
18 mm
14 mm
10 mm
9 mm
8 mm
7 mm
6 mm
5 mm
4.5 mm
4 mm
3.5 mm
3 mm
2.5 mm
2 mm
1.5 mm
1 mm
0.8 mm
0.6 mm
0.4 mm
0.2 mm
0.05 mm
35°
30°
25°
20°
15°
10°
-5°
-10°
-15°
-20°
-25°
-30°
-35°
120> km/h
105 km/h
90 km/h
75 km/h
60 km/h
50 km/h
40 km/h
30 km/h
20 km/h
10 km/h
0 km/h
2600 J/kg
2400 J/kg
2200 J/kg
2000 J/kg
1800 J/kg
1600 J/kg
1400 J/kg
1200 J/kg
1000 J/kg
800 J/kg
600 J/kg
400 J/kg
200 J/kg
70 dBZ
65 dBZ
60 dBZ
55 dBZ
50 dBZ
45 dBZ
40 dBZ
35 dBZ
30 dBZ
25 dBZ
20 dBZ
15 dBZ
10 dBZ
5 dBZ
-1 K
-2 K
-3 K
-4 K
-5 K
-6 K
-7 K
-8 K
-9 K
950 m²/s²
900 m²/s²
850 m²/s²
800 m²/s²
750 m²/s²
700 m²/s²
650 m²/s²
600 m²/s²
550 m²/s²
500 m²/s²
450 m²/s²
400 m²/s²
350 m²/s²
300 m²/s²
250 m²/s²
200 m²/s²
150 m²/s²
100 m²/s²
46 m/s
44 m/s
42 m/s
40 m/s
38 m/s
36 m/s
34 m/s
32 m/s
30 m/s
28 m/s
26 m/s
24 m/s
22 m/s
20 m/s
16 m/s
12 m/s
8 m/s
4 m/s
30 m/s
28 m/s
26 m/s
24 m/s
22 m/s
20 m/s
18 m/s
16 m/s
14 m/s
12 m/s
10 m/s
8 m/s
6 m/s
4 m/s
2 m/s
3.0
2.8
2.6
2.4
2.2
2.0
1.8
1.6
1.4
1.2
1.0
0.8
0.6
0.4
0.2
15
14
13
12
11
10
9
8
7
6
5
4
3
2
1
90%
80%
70%
60%
50%
40%
30%
20%
10%
42
40
38
36
34
32
30
28
26
24
22
20
18
16
14
12
90+ cm
80-90 cm
70-80 cm
60-70 cm
50-60 cm
40-50 cm
30-40 cm
20-30 cm
10-20 cm
1-10 cm
Sneeuwval
Natte sneeuw
Regen
>120 mm
115 mm
110 mm
105 mm
100 mm
95 mm
90 mm
85 mm
80 mm
75 mm
70 mm
65 mm
60 mm
55 mm
50 mm
45 mm
45 mm
40 mm
35 mm
30 mm
25 mm
20 mm
15 mm
10 mm
5 mm
0.1 mm
960 hPa
880 hPa
800 hPa
720 hPa
640 hPa
560 hPa
584 gpdm
568 gpdm
552 gpdm
536 gpdm
520 gpdm
504 gpdm
488 gpdm
Extreem zwaar Noodweer Kans op onweer
15% 15% 5% 50% 15%

Dag




Kaart






35°
30°
25°
20°
15°
10°
-5°
-10°
-15°
-20°
-25°
-30°
-35°
120> km/h
105 km/h